www.pogodaiklimat.ru

Погода и климат >> Архив погоды >> Россия >> город Санкт-Петербург >> Кронштадт


ПОГОДА в Кронштадте

  • Прогноз погоды в Кронштадте
  • Монитор погоды в Кронштадте

АРХИВ ПОГОДЫ в Кронштадте

Время (UTC), дата Ветер
(напр.,м/с)
 
Видим.   Явления Облачность Т
(С)
Тd
(С)
f
(%)
Тe
(С)
Тes
(С)
Комфортность P
(гПа)
Po
(гПа)
Тmin
(С)
Tmax
(С)
R
(мм)
R24
(мм)
S
(см)
12 14.03 ЮВ 3 10 км {снег} 10/8 300 м
[Sc Ac As]
-0.2 -3.3 80 -5 -5 1004.0 1003.4
15 14.03 В 3 10 км 10/10 480 м
[Sc]
-0.5 -2.9 84 -5 -5 1002.8 1002.2
18 14.03 ЮВ 3 10 км 10/6 300 м
[Sc Ac und]
+0.4 -1.6 86 -4 -4 1002.4 1001.8 +0.6 0.0
21 14.03 Ю 4-11
{13}
н/о н/о +0.2 -1.7 87 -5 -5 1001.5 1000.9
00 15.03 Ю 4-10
{13}
н/о н/о +0.4 -1.7 86 -5 -5 1000.3 999.7
03 15.03 Ю 4
{14}
н/о н/о +0.7 -1.0 88 -5 -5 999.6 999.0 -0.5
06 15.03 ЮВ 3 20 км 10/10 300 м
[Sc]
+1.8 +0.7 92 -3 -3 1004.5 1003.9 -0.5 0.0 21
09 15.03 ЮВ 3 10 км {ливн. осадки} 10/10 300 м
[Sc]
+2.3 +1.0 91 -2 -2 999.5 998.9
12 15.03 Ю 4 20 км {ливн. осадки} 6/3 300 м
[Cu hum Ac trans]
+4.2 -1.0 69 0 +1 999.4 998.8
15 15.03 ЮВ 2 20 км 8/3 300 м
[Sc Ac trans]
+3.2 -0.6 76 0 +1 999.1 998.5
18 15.03 ЮВ 4 20 км 8/0
[Ac trans]
+2.4 -1.5 75 -2 -2 998.8 998.2 +5.0 0.0
21 15.03 Ю 5
{12}
н/о н/о +1.3 -0.3 89 -5 -5 998.1 997.5
00 16.03 ЮВ 4-10
{12}
н/о н/о +1.7 -0.6 85 -3 -3 997.2 996.6
03 16.03 ЮВ 5-10
{12}
н/о н/о +1.8 -0.2 87 -4 -4 995.9 995.3 +1.2
06 16.03 В 4
{10}
10 км 10/0
[Ac lent]
+1.6 -1.2 82 -3 -3 995.2 994.6 +1.0 0.0 19
09 16.03 ЮВ 4 10 км 10/3 600 м
[Sc Ac As]
+2.2 -2.1 73 -2 -2 996.4 995.8
12 16.03 В 4 10 км в посл. час снег 10/4 300 м
[Frnb As op]
+1.7 +0.1 89 -3 -3 997.1 996.5
15 16.03 ЮВ 2 4000 м дымка 10/10 360 м
[St]
+1.6 +0.2 90 -2 -2 998.1 997.5
18 16.03 В 2 10 км в посл. час дождь 10/10 600 м
[Sc]
+1.8 -0.4 85 -2 -2 999.4 998.8 +2.4 0.0
21 16.03 ЮВ 4-10
{13}
н/о н/о +1.5 -0.8 85 -4 -4 1000.9 1000.3
00 17.03 ЮВ 4-11
{12}
н/о н/о +0.9 -0.7 89 -4 -4 1001.7 1001.1
03 17.03 ЮВ 4-11
{12}
н/о н/о +1.0 -0.8 88 -4 -4 1002.2 1001.6 +0.7
06 17.03 ЮВ 2-10
{13}
н/о н/о +1.3 -0.1 90 -2 -2 1002.7 1002.1 +0.3 0.3 17
09 17.03 ЮВ 1 10 км {снег} 9/4 300 м
[Cb calv Ac trans]
+3.1 -0.1 79 +2 +3 1003.4 1002.8
12 17.03 ЮВ 2-13
{14}
н/о {снег} н/о +2.9 +0.2 82 -0 -0 1004.0 1003.4
15 17.03 ЮВ 3-12
{13}
н/о н/о +2.6 -0.4 81 -1 -1 1003.7 1003.1
18 17.03 ЮВ 3-11
{13}
н/о н/о +2.6 -0.1 82 -1 -1 1003.2 1002.6 +4.0 0.0
21 17.03 Ю 4-10
{12}
н/о н/о +2.6 +0.2 84 -2 -2 1002.3 1001.7
00 18.03 Ю 5-12
{12}
н/о н/о +1.8 +0.9 94 -4 -4 1001.3 1000.7
03 18.03 Ю 5-11
{12}
н/о н/о +2.3 +1.4 94 -3 -3 1000.0 999.3 +1.7
06 18.03 Ю 5 4000 м слаб. дождь 10/0 300 м
[As op]
+2.8 +1.0 88 -3 -3 1000.3 0.4
09 18.03 ЮВ 2
{10}
4000 м слаб. дождь 10/0 300 м
[As op]
+2.8 +2.8 100 -1 0 1002.5 1001.9
12 18.03 Ю 3 20 км {дождь} 10/6 300 м
[Sc Ac As]
+3.2 +2.7 97 -1 -1 1003.3 1002.7
15 18.03 Ю 2 20 км 10/10 300 м
[Sc]
+3.5 +2.2 91 0 0 1004.4 1003.8
18 18.03 Ю 2 20 км 4/0
[Ac trans]
+2.8 +2.3 97 -1 -1 1005.8 1005.2 +4.0 1
21 18.03 Ю 4
{10}
н/о н/о +2.1 +1.3 94 -3 -3 1006.9 1006.3
00 19.03 Ю 5
{10}
н/о н/о +2.3 +1.3 93 -3 -3 1007.7 1007.1
03 19.03 Ю 5-12
{12}
н/о н/о +1.7 +0.9 94 -4 -4 1007.9 1007.3 +1.5
06 19.03 ЮВ 3 10 км слаб. дождь 10/3 300 м
[Frnb Ac As]
+1.8 +1.0 94 -3 -2 1007.9 1007.3 +1.4 0.0 13
09 19.03 Ю 2 10 км {дождь} 10/4 600 м
[Sc Ac As]
+3.0 +1.2 88 -0 +1 1008.4 1007.8
12 19.03 Ю 3 10 км {дождь} 10/8 600 м
[Sc Ac As]
+3.5 +1.2 85 -0 -0 1009.7 1009.1
15 19.03 Ю 2 10 км в посл. час ливневой дождь 9/6 300 м
[Cb calv Ac trans]
+3.6 +2.3 91 +1 +1 1011.2 1010.6
18 19.03 З 2 10 км {ливн. осадки, дождь} 10/4 300 м
[Sc Ac As]
+1.6 +1.1 96 -2 -2 1012.8 1012.2 +4.1 0.6
21 19.03 З 10-13
{14}
н/о н/о +1.0 +0.8 99 -7 -7 1014.5 1013.9
00 20.03 З 6-13
{16}
н/о н/о +0.9 +0.8 99 -6 -6 1015.5 1014.9
03 20.03 З 8-13
{17}
н/о н/о +0.8 +0.8 100 -7 -7 1016.4 1015.8 +0.8
06 20.03 ЮЗ 3 500 м туман ?/? +1.0 +0.7 98 -4 -4 1016.6 1016.0 +0.3 1 10
09 20.03 З 5-10
{10}
10 км {туман} 10/10 400 м
[St]
+0.4 -0.4 94 -6 -6 1018.5 1017.9
12 20.03 ЮЗ 4
{10}
10 км {туман} 9/8 300 м
[Cb calv Ac trans]
+1.2 -2.6 76 -4 -3 1018.1 1017.5
15 20.03 ЮЗ 6 н/о н/о +1.5 -1.7 79 -5 -5 1016.7 1016.1
18 20.03 Ю 5
{10}
4000 м слаб. ливневой снег 10/10 300 м
[Cb calv]
+1.3 -0.9 85 -4 -4 1014.5 1013.9 +2.5 0.0
21 20.03 З 6
{11}
н/о н/о +1.1 +0.4 95 -5 -5 1012.8 1012.2
00 21.03 З 6-10
{10}
н/о н/о +0.8 +0.1 95 -6 -6 1013.3 1012.7
03 21.03 З 7-11
{11}
н/о н/о +0.5 +0.1 97 -7 -7 1013.9 1013.3 +0.4
06 21.03 З 4
{10}
20 км 8/8 600 м
[Sc]
+1.3 -0.1 90 -4 -4 1014.2 1013.6 -0.5 0.5 9

 

Местоположение метеостанции Кронштадт (город Санкт-Петербург, Россия): широта 59.98 долгота 29.76 высота над уровнем моря 5 м.

В архиве по умолчанию представлена погода в Кронштадте за последнюю неделю. Архивные данные за месяц целиком и за предыдущие месяцы, начиная с января 2011 года, Вы можете получить, выбрав интересующий диапазон дат из раскрывающегося списка и нажав кнопку "Ввод!".


*Определитесь, кто Вы:
робот инопланетянин человек

Внимание! Время в таблицах - всемирное. Для получения местного времени необходимо прибавить поправку, которая равна 3 ч.

Смотрите также архив погоды в соседних городах и на ближайших метеорологических станциях:

Погода в Ломоносове (город Санкт-Петербург, Россия) (7 км)
Погода в Лисьем Носу (город Санкт-Петербург, Россия) (13 км)
Погода в Санкт-Петербурге (город Санкт-Петербург, Россия) (30 км)
Погода в Шепелево (Ленинградская область, Россия) (30 км)
Погода в Рощино (Ленинградская область, Россия) (31 км)
Погода в Сосновом Бору (Ленинградская область, Россия) (37 км)
Погода в Озерках (Ленинградская область, Россия) (49 км)
Погода в Воейково (город Санкт-Петербург, Россия) (52 км)
Погода в Волосово (Ленинградская область, Россия) (63 км)
Погода в Шлиссельбурге (Ленинградская область, Россия) (69 км)

Пояснения к столбцам:

Ветер - указаны скорость ветра в м/с - средняя за 10 мин, порывы в срок и между сроками (в фигурных скобках) и направление, откуда дует ветер: С - северный, СВ - северо-восточный, В - восточный, ЮВ - юго-восточный, Ю - южный, ЮЗ - юго-западный, З - западный, СЗ - северо-западный.
Видимость - горизонтальная дальность видимости в метрах или километрах. При видимости от 1 до 10 км при отсутствии осадков обычно наблюдается дымка, при ухудшении видимости до 1 км и менее - туман. В сухую погоду видимость может ухудшаться дымом, пылью или мглою.
Явления - указаны атмосферные явления, наблюдавшиеся в срок или в последний час перед сроком; фигурными скобками обозначены явления, наблюдавшиеся между сроками (за 1-3 часа до срока); квадратными скобками обозначены град или гололедные отложения с указанием их диаметра в мм.
Облачность - указаны через наклонную черту общая и нижняя облачность в баллах и высота нижней границы облаков в метрах; квадратными скобками обозначены формы облаков: Ci - перистые, Cs - перисто-слоистые, Cc - перисто-кучевые, Ac - высококучевые, As - высокослоистые, Sc - слоисто-кучевые, Ns - слоисто-дождевые, Cu - кучевые, Cb - кучево-дождевые. Подробнее классификацию облаков см. в Атласе облаков (PDF).
T - Температура воздуха - температура, измеренная на высоте 2 м над землей.
Td - Температура точки росы - температура, при понижении до которой содержащийся в воздухе водяной пар достигнет насыщения.
f - Относительная влажность воздуха - влажноcть воздуха, измеренная на высоте 2 м над землей.
Te - Эффективная температура - температура, которую ощущает одетый по сезону человек в тени. Характеристика душности погоды. При расчете учитывается влияние влажности воздуха и скорости ветра на теплоощущения человека.
Tes - Эффективная температура на солнце - температура, которую ощущает человек, с поправкой на солнечный нагрев. Характеристика знойности погоды. Зависит от высоты солнца над горизонтом, облачности и скорости ветра. Ночью, в пасмурную погоду, а также при ветре 12 м/с и более поправка равна нулю.
P - Атмосферное давление - приведенное к уровню моря атмосферное давление.
Po - Атмосферное давление - измеренное на уровне метеостанции атмосферное давление.
Tmin - Минимальная температура - минимум температуры воздуха на высоте 2 м над землей.
Tmax - Максимальная температура - максимум температуры воздуха на высоте 2 м над землей.
R - Количество осадков - Количество выпавших осадков за период времени, мм. При наведении курсора мыши на число - период времени, за который выпало указанное количество осадков.
R24 - Количество осадков - Количество выпавших осадков за 24 часа, мм.
S - Снежный покров - Высота снежного покрова, см. При наведении курсора мыши на число - состояние снежного покрова и степень покрытия местности в баллах.